This is the latest recevied weather packets stored in our database for station/object LW9ERO-3. If no packets are shown the sender has not sent any weather packets the latest 10 day(s).
| Time | Temp. | Humidity | Pressure | Rain* | Wind** | Luminosity | Snow |
|---|---|---|---|---|---|---|---|
| 1787678823 | 15° C | 53% | 1016.8 hPa | 0 mm | - | - | - |
| 1787678284 | 15° C | 53% | 1016.9 hPa | 0 mm | - | - | - |
| 1787677744 | 15° C | 54% | 1016.6 hPa | 0 mm | - | - | - |
| 1787677203 | 15° C | 53% | 1016.7 hPa | 0 mm | - | - | - |
| 1787676843 | 15° C | 52% | 1017.1 hPa | 0 mm | - | - | - |
| 1787676304 | 14.44° C | 54% | 1017 hPa | 0 mm | - | - | - |
| 1787675763 | 14.44° C | 54% | 1017.2 hPa | 0 mm | - | - | - |
| 1787675223 | 13.89° C | 55% | 1017.4 hPa | 0 mm | - | - | - |
| 1787674684 | 13.89° C | 56% | 1017.4 hPa | 0 mm | - | - | - |
| 1787674144 | 13.89° C | 56% | 1017.4 hPa | 0 mm | - | - | - |
| 1787673604 | 13.33° C | 59% | 1018 hPa | 0 mm | - | - | - |
| 1787673243 | 12.78° C | 60% | 1017.9 hPa | 0 mm | - | - | - |
| 1787672703 | 12.22° C | 61% | 1017.7 hPa | 0 mm | - | - | - |
| 1787672163 | 11.67° C | 63% | 1018.1 hPa | 0 mm | - | - | - |
| 1787671623 | 11.67° C | 63% | 1017.8 hPa | 0 mm | - | - | - |
| 1787671083 | 11.11° C | 64% | 1018.1 hPa | 0 mm | - | - | - |
| 1787670544 | 11.11° C | 64% | 1017.8 hPa | 0 mm | - | - | - |
| 1787670003 | 10.56° C | 66% | 1018.6 hPa | 0 mm | - | - | - |
| 1787669644 | 10.56° C | 66% | 1018.9 hPa | 0 mm | - | - | - |
| 1787669103 | 10.56° C | 66% | 1019.1 hPa | 0 mm | - | - | - |
| 1787668563 | 10° C | 67% | 1019.4 hPa | 0 mm | - | - | - |
| 1787668023 | 10° C | 69% | 1019.3 hPa | 0 mm | - | - | - |
| 1787667484 | 10° C | 69% | 1019.5 hPa | 0 mm | - | - | - |
| 1787666944 | 10° C | 69% | 1019.4 hPa | 0 mm | - | - | - |
| 1787666403 | 8.89° C | 70% | 1019.4 hPa | 0 mm | - | - | - |
* Rain latest hour (hover to see other rain measurements)
** Current wind speed in m/s (hover to see current wind gust speed)